Home   Weather   Lugano   Past weeks

Flag for Switzerland Past Weather in Lugano, Switzerland — Yesterday and Last 2 Weeks

Now
34 °F

Sunny.


Feels Like: 34 °F
Forecast: 22 / 42 °F
Wind: 1 mph from North

Location: Lugano Airport

Current Time: Jan 20, 2017 at 1:22:12 pm

Latest Report: Jan 20, 2017 at 12:50 pm


Visibility: 10 mi

Pressure: 30.51 "Hg

Humidity: 65%

Dew Point: 23 °F

Location of LuganoLocation

Past Weather in Lugano — Graph

°F

Lugano Temperature Yesterday

Maximum temperature yesterday: 45 °F (at 2:50 pm)
Minimum temperature yesterday: 21 °F (at 4:50 am)
Average temperature yesterday: 31 °F

High & Low Weather Summary for the Past Weeks

 TemperatureHumidityPressure
High46 °F (Jan 14, 1:50 pm)100% (Jan 12, 7:20 pm)30.51 "Hg (Jan 12, 7:20 pm)
Low18 °F (Jan 9, 4:20 am)19% (Jan 6, 1:20 pm)29.50 "Hg (Jan 13, 10:50 am)
Average31 °F62%30.11 "Hg
* Reported Jan 5 11:20 am — Jan 20 11:50 am, Lugano, Weather by CustomWeather, © 2017

Note: Actual official high and low records may vary slightly from our data, if they occured in-between our weather recording intervals... More about our weather records

Advertising

Lugano Weather History for the Previous 24 Hours

Scroll right to see more
 ConditionsComfort  
Time TempWeatherWind HumidityBarometerVisibility
11:50 am
Fri, Jan 20
36 °FSunny.1 mph60%30.51 "Hg10 mi
11:20 am36 °FSunny.1 mph60%30.51 "Hg10 mi
10:50 am32 °FSunny.1 mph75%30.51 "Hg10 mi
10:20 am30 °FSunny.1 mph75%30.51 "Hg10 mi
9:50 am27 °FSunny.2 mph80%30.51 "Hg10 mi
9:20 am25 °FPassing clouds.3 mph80%30.51 "HgN/A
8:50 am23 °FSunny.1 mph86%30.51 "Hg10 mi
8:20 am23 °FSunny.1 mph80%30.48 "Hg10 mi
7:50 am23 °FClear.3 mph86%30.48 "Hg10 mi
7:20 am23 °FClear.6 mph86%30.48 "Hg10 mi
6:50 am23 °FClear.2 mph93%30.48 "Hg10 mi
6:20 am23 °FClear.1 mph93%30.48 "Hg10 mi
5:50 am23 °FCold.1 mph93%30.48 "Hg4 mi
5:20 am25 °FCold.3 mph86%30.48 "Hg6 mi
4:50 am23 °FCold.1 mph86%30.48 "Hg6 mi
4:20 am23 °FCold.1 mph86%30.48 "Hg6 mi
3:50 am23 °FClear.2 mph93%30.51 "Hg10 mi
3:20 am25 °FCold.1 mph86%30.51 "Hg3 mi
2:50 am25 °FCold.2 mph86%30.51 "Hg6 mi
2:20 am25 °FClear.2 mph86%30.48 "Hg10 mi
1:50 am25 °FClear.3 mph86%30.48 "Hg10 mi
1:20 am23 °FCold.1 mph86%30.51 "Hg6 mi
12:50 am25 °FCold.1 mph86%30.51 "Hg5 mi
12:20 am25 °FCold.1 mph86%30.51 "Hg6 mi
11:50 pm
Thu, Jan 19
27 °FClear.1 mph80%30.51 "Hg10 mi
11:20 pm27 °FClear.1 mph86%30.51 "Hg10 mi
10:50 pm27 °FClear.2 mph80%30.48 "Hg10 mi
10:20 pm28 °FClear.3 mph80%30.48 "Hg10 mi
9:50 pm28 °FClear.1 mph80%30.48 "Hg10 mi
9:20 pm28 °FClear.1 mph80%30.48 "Hg10 mi
8:50 pm30 °FClear.3 mph75%30.45 "Hg10 mi
8:20 pm30 °FClear.2 mph80%30.45 "Hg10 mi
7:50 pm30 °FClear.2 mph80%30.45 "Hg10 mi
7:20 pm32 °FClear.1 mph75%30.45 "Hg10 mi
6:50 pm32 °FClear.1 mph69%30.42 "Hg10 mi
6:20 pm32 °FClear.5 mph69%30.42 "Hg10 mi
5:50 pm36 °FClear.1 mph60%30.39 "Hg10 mi
5:20 pm37 °FClear.1 mph56%30.39 "Hg10 mi
4:50 pm41 °FSunny.3 mph53%30.39 "Hg10 mi
4:20 pm43 °FPassing clouds.6 mph46%30.39 "HgN/A
3:50 pm43 °FPassing clouds.8 mph46%30.36 "HgN/A
3:20 pm43 °FSunny.6 mph46%30.36 "Hg10 mi
2:50 pm45 °FSunny.3 mph39%30.36 "Hg10 mi
2:20 pm43 °FSunny.5 mph42%30.36 "Hg10 mi
1:50 pm43 °FSunny.3 mph42%30.39 "Hg10 mi
1:20 pm43 °FSunny.1 mph36%30.39 "Hg10 mi
Weather by CustomWeather, © 2017

See weather overviewHow to use our weather pages